Satellite: RS-30
Catalog number: 32953
Epoch time:      10287.57538513
Element set:     130
Inclination:      082.5020 deg
RA of node:       315.4484 deg
Eccentricity:    0.0018208
Arg of perigee:   198.0788 deg
Mean anomaly:     161.9653 deg
Mean motion:   12.43008361 rev/day
Decay rate:        1.0e-07 rev/day^2
Epoch rev:           10857
Checksum:              282

Satellite: TACSAT-3
Catalog number: 35001
Epoch time:      10287.89566404
Element set:     406
Inclination:      040.4535 deg
RA of node:       214.4134 deg
Eccentricity:    0.0020601
Arg of perigee:   184.7983 deg
Mean anomaly:     175.2631 deg
Mean motion:   15.43092027 rev/day
Decay rate:      8.295e-05 rev/day^2
Epoch rev:            7912
Checksum:              281

Satellite: PHARMSAT
Catalog number: 35002
Epoch time:      10286.97231995
Element set:    0381
Inclination:      040.4691 deg
RA of node:       217.6172 deg
Eccentricity:    0.0023817
Arg of perigee:   181.5895 deg
Mean anomaly:     178.4889 deg
Mean motion:   15.43453753 rev/day
Decay rate:      6.891e-05 rev/day^2
Epoch rev:           07900
Checksum:              325

Satellite: HAWKSAT1
Catalog number: 35003
Epoch time:      10286.92131691
Element set:    0415
Inclination:      040.4564 deg
RA of node:       208.6373 deg
Eccentricity:    0.0022066
Arg of perigee:   203.4124 deg
Mean anomaly:     156.5714 deg
Mean motion:   15.47926079 rev/day
Decay rate:     1.6201e-04 rev/day^2
Epoch rev:           07910
Checksum:              268

Satellite: CP6
Catalog number: 35004
Epoch time:      10286.83742501
Element set:    0409
Inclination:      040.4578 deg
RA of node:       207.0890 deg
Eccentricity:    0.0021305
Arg of perigee:   207.8393 deg
Mean anomaly:     152.1438 deg
Mean motion:   15.49297498 rev/day
Decay rate:     2.0308e-04 rev/day^2
Epoch rev:           07910
Checksum:              294

Satellite: AEROCUB3
Catalog number: 35005
Epoch time:      10287.73913098
Element set:     482
Inclination:      040.4661 deg
RA of node:       190.2329 deg
Eccentricity:    0.0024374
Arg of perigee:   241.6618 deg
Mean anomaly:     118.2247 deg
Mean motion:   15.62790341 rev/day
Decay rate:    1.07674e-03 rev/day^2
Epoch rev:            7937
Checksum:              303

Satellite: CASTOR
Catalog number: 35694
Epoch time:      10230.44082147
Element set:     655
Inclination:      051.5930 deg
RA of node:       222.0149 deg
Eccentricity:    0.0004218
Arg of perigee:   308.0851 deg
Mean anomaly:     053.0105 deg
Mean motion:   16.48877011 rev/day
Decay rate:   7.179566e-02 rev/day^2
Epoch rev:            6110
Checksum:              273

Satellite: METEOR-M
Catalog number: 35865
Epoch time:      10287.69567073
Element set:     741
Inclination:      098.7436 deg
RA of node:       340.5536 deg
Eccentricity:    0.0003062
Arg of perigee:   032.6187 deg
Mean anomaly:     327.5158 deg
Mean motion:   14.21831861 rev/day
Decay rate:       1.76e-06 rev/day^2
Epoch rev:            5570
Checksum:              308

Satellite: RS-38
Catalog number: 35869
Epoch time:      10287.72444622
Element set:     754
Inclination:      098.7436 deg
RA of node:       340.6222 deg
Eccentricity:    0.0005312
Arg of perigee:   027.4668 deg
Mean anomaly:     332.6765 deg
Mean motion:   14.21990683 rev/day
Decay rate:       1.77e-06 rev/day^2
Epoch rev:            5571
Checksum:              325

/EX




More information about the Keps mailing list